Year,Month,Day,Hour,Minute,Value (Times are PST for temperature in C)
2019,05,05,00,00,11.30
2019,05,05,00,01,11.30
2019,05,05,00,02,11.30
2019,05,05,00,03,11.20
2019,05,05,00,04,11.20
2019,05,05,00,05,11.20
2019,05,05,00,06,11.20
2019,05,05,00,07,11.20
2019,05,05,00,08,11.20
2019,05,05,00,09,11.20
2019,05,05,00,10,11.20
2019,05,05,00,11,11.20
2019,05,05,00,12,11.20
2019,05,05,00,13,11.20
2019,05,05,00,14,11.10
2019,05,05,00,15,11.10
2019,05,05,00,16,11.10
2019,05,05,00,17,11.10
2019,05,05,00,18,11.10
2019,05,05,00,19,11.10
2019,05,05,00,20,11.10
2019,05,05,00,21,11.10
2019,05,05,00,22,11.10
2019,05,05,00,23,11.00
2019,05,05,00,24,11.00
2019,05,05,00,25,11.00
2019,05,05,00,26,10.90
2019,05,05,00,27,10.90
2019,05,05,00,28,10.90
2019,05,05,00,29,10.90
2019,05,05,00,30,10.80
2019,05,05,00,31,10.80
2019,05,05,00,32,10.80
2019,05,05,00,33,10.80
2019,05,05,00,34,10.80
2019,05,05,00,35,10.70
2019,05,05,00,36,10.70
2019,05,05,00,37,10.70
2019,05,05,00,38,10.70
2019,05,05,00,39,10.60
2019,05,05,00,40,10.60
2019,05,05,00,41,10.60
2019,05,05,00,42,10.60
2019,05,05,00,43,10.60
2019,05,05,00,44,10.50
2019,05,05,00,45,10.50
2019,05,05,00,46,10.50
2019,05,05,00,47,10.50
2019,05,05,00,48,10.50
2019,05,05,00,49,10.40
2019,05,05,00,50,10.40
2019,05,05,00,51,10.40
2019,05,05,00,52,10.40
2019,05,05,00,53,10.40
2019,05,05,00,54,10.40
2019,05,05,00,55,10.30
2019,05,05,00,56,10.30
2019,05,05,00,57,10.30
2019,05,05,00,58,10.30
2019,05,05,00,59,10.30
2019,05,05,01,00,10.30
2019,05,05,01,01,10.30
2019,05,05,01,02,10.30
2019,05,05,01,03,10.30
2019,05,05,01,04,10.30
2019,05,05,01,05,10.30
2019,05,05,01,06,10.30
2019,05,05,01,07,10.20
2019,05,05,01,08,10.20
2019,05,05,01,09,10.20
2019,05,05,01,10,10.20
2019,05,05,01,11,10.20
2019,05,05,01,12,10.20
2019,05,05,01,13,10.20
2019,05,05,01,14,10.10
2019,05,05,01,15,10.10
2019,05,05,01,16,10.10
2019,05,05,01,17,10.10
2019,05,05,01,18,10.10
2019,05,05,01,19,10.10
2019,05,05,01,20,10.10
2019,05,05,01,21,10.00
2019,05,05,01,22,10.00
2019,05,05,01,23,10.00
2019,05,05,01,24,10.00
2019,05,05,01,25,9.90
2019,05,05,01,26,9.90
2019,05,05,01,27,9.90
2019,05,05,01,28,9.90
2019,05,05,01,29,9.90
2019,05,05,01,30,9.90
2019,05,05,01,31,9.90
2019,05,05,01,32,9.90
2019,05,05,01,33,9.90
2019,05,05,01,34,9.90
2019,05,05,01,35,9.90
2019,05,05,01,36,9.90
2019,05,05,01,37,9.90
2019,05,05,01,38,9.90
2019,05,05,01,39,9.90
2019,05,05,01,40,9.90
2019,05,05,01,41,9.90
2019,05,05,01,42,9.90
2019,05,05,01,43,9.90
2019,05,05,01,44,9.90
2019,05,05,01,45,9.90
2019,05,05,01,46,9.90
2019,05,05,01,47,9.90
2019,05,05,01,48,9.90
2019,05,05,01,49,9.90
2019,05,05,01,50,9.80
2019,05,05,01,51,9.80
2019,05,05,01,52,9.80
2019,05,05,01,53,9.80
2019,05,05,01,54,9.80
2019,05,05,01,55,9.70
2019,05,05,01,56,9.70
2019,05,05,01,57,9.70
2019,05,05,01,58,9.70
2019,05,05,01,59,9.70
2019,05,05,02,00,9.70
2019,05,05,02,01,9.70
2019,05,05,02,02,9.60
2019,05,05,02,03,9.60
2019,05,05,02,04,9.60
2019,05,05,02,05,9.50
2019,05,05,02,06,9.50
2019,05,05,02,07,9.50
2019,05,05,02,08,9.50
2019,05,05,02,09,9.40
2019,05,05,02,10,9.40
2019,05,05,02,11,9.40
2019,05,05,02,12,9.40
2019,05,05,02,13,9.40
2019,05,05,02,14,9.40
2019,05,05,02,15,9.30
2019,05,05,02,16,9.30
2019,05,05,02,17,9.30
2019,05,05,02,18,9.30
2019,05,05,02,19,9.30
2019,05,05,02,20,9.30
2019,05,05,02,21,9.30
2019,05,05,02,22,9.30
2019,05,05,02,23,9.30
2019,05,05,02,24,9.30
2019,05,05,02,25,9.30
2019,05,05,02,26,9.30
2019,05,05,02,27,9.30
2019,05,05,02,28,9.30
2019,05,05,02,29,9.20
2019,05,05,02,30,9.20
2019,05,05,02,31,9.20
2019,05,05,02,32,9.20
2019,05,05,02,33,9.20
2019,05,05,02,34,9.20
2019,05,05,02,35,9.10
2019,05,05,02,36,9.10
2019,05,05,02,37,9.10
2019,05,05,02,38,9.10
2019,05,05,02,39,9.10
2019,05,05,02,40,9.10
2019,05,05,02,41,9.10
2019,05,05,02,42,9.10
2019,05,05,02,43,9.10
2019,05,05,02,44,9.10
2019,05,05,02,45,9.10
2019,05,05,02,46,9.10
2019,05,05,02,47,9.10
2019,05,05,02,48,9.10
2019,05,05,02,49,9.10
2019,05,05,02,50,9.10
2019,05,05,02,51,9.10
2019,05,05,02,52,9.10
2019,05,05,02,53,9.10
2019,05,05,02,54,9.10
2019,05,05,02,55,9.10
2019,05,05,02,56,9.00
2019,05,05,02,57,9.00
2019,05,05,02,58,9.10
2019,05,05,02,59,9.10
2019,05,05,03,00,9.10
2019,05,05,03,01,9.10
2019,05,05,03,02,9.00
2019,05,05,03,03,9.00
2019,05,05,03,04,9.00
2019,05,05,03,05,9.00
2019,05,05,03,06,9.00
2019,05,05,03,07,9.00
2019,05,05,03,08,9.00
2019,05,05,03,09,9.00
2019,05,05,03,10,9.00
2019,05,05,03,11,9.00
2019,05,05,03,12,9.00
2019,05,05,03,13,9.00
2019,05,05,03,14,9.00
2019,05,05,03,15,9.00
2019,05,05,03,16,8.90
2019,05,05,03,17,8.90
2019,05,05,03,18,8.90
2019,05,05,03,19,8.90
2019,05,05,03,20,8.90
2019,05,05,03,21,8.90
2019,05,05,03,22,8.90
2019,05,05,03,23,8.90
2019,05,05,03,24,8.90
2019,05,05,03,25,9.00
2019,05,05,03,26,9.00
2019,05,05,03,27,9.00
2019,05,05,03,28,9.00
2019,05,05,03,29,9.00
2019,05,05,03,30,9.00
2019,05,05,03,31,9.10
2019,05,05,03,32,9.00
2019,05,05,03,33,9.10
2019,05,05,03,34,9.10
2019,05,05,03,35,9.00
2019,05,05,03,36,9.10
2019,05,05,03,37,9.10
2019,05,05,03,38,9.10
2019,05,05,03,39,9.10
2019,05,05,03,40,9.00
2019,05,05,03,41,9.00
2019,05,05,03,42,9.00
2019,05,05,03,43,9.00
2019,05,05,03,44,9.00
2019,05,05,03,45,9.00
2019,05,05,03,46,9.00
2019,05,05,03,47,9.00
2019,05,05,03,48,9.00
2019,05,05,03,49,9.00
2019,05,05,03,50,8.90
2019,05,05,03,51,8.90
2019,05,05,03,52,8.90
2019,05,05,03,53,8.90
2019,05,05,03,54,8.90
2019,05,05,03,55,8.90
2019,05,05,03,56,8.80
2019,05,05,03,57,8.80
2019,05,05,03,58,8.80
2019,05,05,03,59,8.80
2019,05,05,04,00,8.80
2019,05,05,04,01,8.80
2019,05,05,04,02,8.80
2019,05,05,04,03,8.70
2019,05,05,04,04,8.70
2019,05,05,04,05,8.70
2019,05,05,04,06,8.70
2019,05,05,04,07,8.70
2019,05,05,04,08,8.70
2019,05,05,04,09,8.60
2019,05,05,04,10,8.60
2019,05,05,04,11,8.60
2019,05,05,04,12,8.60
2019,05,05,04,13,8.60
2019,05,05,04,14,8.60
2019,05,05,04,15,8.60
2019,05,05,04,16,8.60
2019,05,05,04,17,8.60
2019,05,05,04,18,8.50
2019,05,05,04,19,8.50
2019,05,05,04,20,8.50
2019,05,05,04,21,8.40
2019,05,05,04,22,8.40
2019,05,05,04,23,8.40
2019,05,05,04,24,8.40
2019,05,05,04,25,8.40
2019,05,05,04,26,8.40
2019,05,05,04,27,8.30
2019,05,05,04,28,8.30
2019,05,05,04,29,8.30
2019,05,05,04,30,8.30
2019,05,05,04,31,8.30
2019,05,05,04,32,8.30
2019,05,05,04,33,8.30
2019,05,05,04,34,8.20
2019,05,05,04,35,8.20
2019,05,05,04,36,8.20
2019,05,05,04,37,8.20
2019,05,05,04,38,8.20
2019,05,05,04,39,8.20
2019,05,05,04,40,8.20
2019,05,05,04,41,8.10
2019,05,05,04,42,8.10
2019,05,05,04,43,8.10
2019,05,05,04,44,8.10
2019,05,05,04,45,8.10
2019,05,05,04,46,8.10
2019,05,05,04,47,8.20
2019,05,05,04,48,8.20
2019,05,05,04,49,8.20
2019,05,05,04,50,8.20
2019,05,05,04,51,8.20
2019,05,05,04,52,8.20
2019,05,05,04,53,8.20
2019,05,05,04,54,8.20
2019,05,05,04,55,8.20
2019,05,05,04,56,8.20
2019,05,05,04,57,8.20
2019,05,05,04,58,8.10
2019,05,05,04,59,8.10
2019,05,05,05,00,8.10
2019,05,05,05,01,8.10
2019,05,05,05,02,8.10
2019,05,05,05,03,8.10
2019,05,05,05,04,8.00
2019,05,05,05,05,8.00
2019,05,05,05,06,8.00
2019,05,05,05,07,7.90
2019,05,05,05,08,7.90
2019,05,05,05,09,7.90
2019,05,05,05,10,7.90
2019,05,05,05,11,7.90
2019,05,05,05,12,7.90
2019,05,05,05,13,7.90
2019,05,05,05,14,7.90
2019,05,05,05,15,7.80
2019,05,05,05,16,7.80
2019,05,05,05,17,7.80
2019,05,05,05,18,7.80
2019,05,05,05,19,7.80
2019,05,05,05,20,7.80
2019,05,05,05,21,7.80
2019,05,05,05,22,7.80
2019,05,05,05,23,7.70
2019,05,05,05,24,7.70
2019,05,05,05,25,7.70
2019,05,05,05,26,7.70
2019,05,05,05,27,7.70
2019,05,05,05,28,7.70
2019,05,05,05,29,7.70
2019,05,05,05,30,7.70
2019,05,05,05,31,7.60
2019,05,05,05,32,7.60
2019,05,05,05,33,7.60
2019,05,05,05,34,7.60
2019,05,05,05,35,7.60
2019,05,05,05,36,7.60
2019,05,05,05,37,7.60
2019,05,05,05,38,7.60
2019,05,05,05,39,7.60
2019,05,05,05,40,7.60
2019,05,05,05,41,7.60
2019,05,05,05,42,7.70
2019,05,05,05,43,7.70
2019,05,05,05,44,7.70
2019,05,05,05,45,7.70
2019,05,05,05,46,7.70
2019,05,05,05,47,7.70
2019,05,05,05,48,7.70
2019,05,05,05,49,7.70
2019,05,05,05,50,7.70
2019,05,05,05,51,7.70
2019,05,05,05,52,7.60
2019,05,05,05,53,7.60
2019,05,05,05,54,7.60
2019,05,05,05,55,7.60
2019,05,05,05,56,7.60
2019,05,05,05,57,7.70
2019,05,05,05,58,7.70
2019,05,05,05,59,7.70
2019,05,05,06,00,7.70
2019,05,05,06,01,7.70
2019,05,05,06,02,7.80
2019,05,05,06,03,7.80
2019,05,05,06,04,7.80
2019,05,05,06,05,7.80
2019,05,05,06,06,7.80
2019,05,05,06,07,7.80
2019,05,05,06,08,7.80
2019,05,05,06,09,7.80
2019,05,05,06,10,7.80
2019,05,05,06,11,7.80
2019,05,05,06,12,7.80
2019,05,05,06,13,7.80
2019,05,05,06,14,7.80
2019,05,05,06,15,7.80
2019,05,05,06,16,7.80
2019,05,05,06,17,7.80
2019,05,05,06,18,7.80
2019,05,05,06,19,7.80
2019,05,05,06,20,7.80
2019,05,05,06,21,7.80
2019,05,05,06,22,7.80
2019,05,05,06,23,7.80
2019,05,05,06,24,7.80
2019,05,05,06,25,7.80
2019,05,05,06,26,7.80
2019,05,05,06,27,7.80
2019,05,05,06,28,7.80
2019,05,05,06,29,7.80
2019,05,05,06,30,7.80
2019,05,05,06,31,7.90
2019,05,05,06,32,7.90
2019,05,05,06,33,7.90
2019,05,05,06,34,7.90
2019,05,05,06,35,7.90
2019,05,05,06,36,7.90
2019,05,05,06,37,8.00
2019,05,05,06,38,8.00
2019,05,05,06,39,8.00
2019,05,05,06,40,8.00
2019,05,05,06,41,8.00
2019,05,05,06,42,8.10
2019,05,05,06,43,8.10
2019,05,05,06,44,8.10
2019,05,05,06,45,8.10
2019,05,05,06,46,8.10
2019,05,05,06,47,8.20
2019,05,05,06,48,8.20
2019,05,05,06,49,8.20
2019,05,05,06,50,8.20
2019,05,05,06,51,8.30
2019,05,05,06,52,8.30
2019,05,05,06,53,8.30
2019,05,05,06,54,8.30
2019,05,05,06,55,8.40
2019,05,05,06,56,8.40
2019,05,05,06,57,8.40
2019,05,05,06,58,8.40
2019,05,05,06,59,8.50
2019,05,05,07,00,8.50
2019,05,05,07,01,8.50
2019,05,05,07,02,8.60
2019,05,05,07,03,8.60
2019,05,05,07,04,8.60
2019,05,05,07,05,8.60
2019,05,05,07,06,8.70
2019,05,05,07,07,8.70
2019,05,05,07,08,8.70
2019,05,05,07,09,8.80
2019,05,05,07,10,8.80
2019,05,05,07,11,8.80
2019,05,05,07,12,8.80
2019,05,05,07,13,8.90
2019,05,05,07,14,8.90
2019,05,05,07,15,9.00
2019,05,05,07,16,9.00
2019,05,05,07,17,9.10
2019,05,05,07,18,9.10
2019,05,05,07,19,9.20
2019,05,05,07,20,9.20
2019,05,05,07,21,9.20
2019,05,05,07,22,9.30
2019,05,05,07,23,9.40
2019,05,05,07,24,9.50
2019,05,05,07,25,9.60
2019,05,05,07,26,9.70
2019,05,05,07,27,9.80
2019,05,05,07,28,9.80
2019,05,05,07,29,9.90
2019,05,05,07,30,9.90
2019,05,05,07,31,10.00
2019,05,05,07,32,10.00
2019,05,05,07,33,10.10
2019,05,05,07,34,10.20
2019,05,05,07,35,10.30
2019,05,05,07,36,10.40
2019,05,05,07,37,10.50
2019,05,05,07,38,10.60
2019,05,05,07,39,10.70
2019,05,05,07,40,10.80
2019,05,05,07,41,10.90
2019,05,05,07,42,11.00
2019,05,05,07,43,11.10
2019,05,05,07,44,11.20
2019,05,05,07,45,11.20
2019,05,05,07,46,11.30
2019,05,05,07,47,11.40
2019,05,05,07,48,11.40
2019,05,05,07,49,11.50
2019,05,05,07,50,11.50
2019,05,05,07,51,11.60
2019,05,05,07,52,11.70
2019,05,05,07,53,11.80
2019,05,05,07,54,12.00
2019,05,05,07,55,12.10
2019,05,05,07,56,12.10
2019,05,05,07,57,12.20
2019,05,05,07,58,12.30
2019,05,05,07,59,12.40
2019,05,05,08,00,12.50
2019,05,05,08,01,12.60
2019,05,05,08,02,12.60
2019,05,05,08,03,12.70
2019,05,05,08,04,12.70
2019,05,05,08,05,12.80
2019,05,05,08,06,12.80
2019,05,05,08,07,12.80
2019,05,05,08,08,12.90
2019,05,05,08,09,12.90
2019,05,05,08,10,12.90
2019,05,05,08,11,13.00
2019,05,05,08,12,13.00
2019,05,05,08,13,13.00
2019,05,05,08,14,13.00
2019,05,05,08,15,12.90
2019,05,05,08,16,12.90
2019,05,05,08,17,12.80
2019,05,05,08,18,12.80
2019,05,05,08,19,12.80
2019,05,05,08,20,12.70
2019,05,05,08,21,12.70
2019,05,05,08,22,12.70
2019,05,05,08,23,12.70
2019,05,05,08,24,12.70
2019,05,05,08,25,12.70
2019,05,05,08,26,12.70
2019,05,05,08,27,12.70
2019,05,05,08,28,12.70
2019,05,05,08,29,12.70
2019,05,05,08,30,12.70
2019,05,05,08,31,12.70
2019,05,05,08,32,12.70
2019,05,05,08,33,12.70
2019,05,05,08,34,12.80
2019,05,05,08,35,12.80
2019,05,05,08,36,12.80
2019,05,05,08,37,12.80
2019,05,05,08,38,12.80
2019,05,05,08,39,12.90
2019,05,05,08,40,12.90
2019,05,05,08,41,13.00
2019,05,05,08,42,13.00
2019,05,05,08,43,13.00
2019,05,05,08,44,13.00
2019,05,05,08,45,13.00
2019,05,05,08,46,13.00
2019,05,05,08,47,13.10
2019,05,05,08,48,13.10
2019,05,05,08,49,13.10
2019,05,05,08,50,13.20
2019,05,05,08,51,13.30
2019,05,05,08,52,13.30
2019,05,05,08,53,13.40
2019,05,05,08,54,13.50
2019,05,05,08,55,13.60
2019,05,05,08,56,13.70
2019,05,05,08,57,13.80
2019,05,05,08,58,13.80
2019,05,05,08,59,13.70
2019,05,05,09,00,13.70
2019,05,05,09,01,13.70
2019,05,05,09,02,13.70
2019,05,05,09,03,13.70
2019,05,05,09,04,13.70
2019,05,05,09,05,13.70
2019,05,05,09,06,13.70
2019,05,05,09,07,13.70
2019,05,05,09,08,13.70
2019,05,05,09,09,13.70
2019,05,05,09,10,13.70
2019,05,05,09,11,13.70
2019,05,05,09,12,13.80
2019,05,05,09,13,13.80
2019,05,05,09,14,13.80
2019,05,05,09,15,13.80
2019,05,05,09,16,13.80
2019,05,05,09,17,13.90
2019,05,05,09,18,13.90
2019,05,05,09,19,13.90
2019,05,05,09,20,13.90
2019,05,05,09,21,13.90
2019,05,05,09,22,14.00
2019,05,05,09,23,14.00
2019,05,05,09,24,14.00
2019,05,05,09,25,14.00
2019,05,05,09,26,13.90
2019,05,05,09,27,13.90
2019,05,05,09,28,13.90
2019,05,05,09,29,13.90
2019,05,05,09,30,14.00
2019,05,05,09,31,14.10
2019,05,05,09,32,14.10
2019,05,05,09,33,14.10
2019,05,05,09,34,14.10
2019,05,05,09,35,14.20
2019,05,05,09,36,14.20
2019,05,05,09,37,14.20
2019,05,05,09,38,14.20
2019,05,05,09,39,14.30
2019,05,05,09,40,14.30
2019,05,05,09,41,14.40
2019,05,05,09,42,14.50
2019,05,05,09,43,14.50
2019,05,05,09,44,14.60
2019,05,05,09,45,14.60
2019,05,05,09,46,14.70
2019,05,05,09,47,14.70
2019,05,05,09,48,14.70
2019,05,05,09,49,14.70
2019,05,05,09,50,14.80
2019,05,05,09,51,14.80
2019,05,05,09,52,14.80
2019,05,05,09,53,14.80
2019,05,05,09,54,14.80
2019,05,05,09,55,14.80
2019,05,05,09,56,14.80
2019,05,05,09,57,14.80
2019,05,05,09,58,14.90
2019,05,05,09,59,14.80
2019,05,05,10,00,14.80
2019,05,05,10,01,14.70
2019,05,05,10,02,14.60
2019,05,05,10,03,14.60
2019,05,05,10,04,14.60
2019,05,05,10,05,14.60
2019,05,05,10,06,14.50
2019,05,05,10,07,14.50
2019,05,05,10,08,14.50
2019,05,05,10,09,14.50
2019,05,05,10,10,14.60
2019,05,05,10,11,14.70
2019,05,05,10,12,14.80
2019,05,05,10,13,14.90
2019,05,05,10,14,14.90
2019,05,05,10,15,14.90
2019,05,05,10,16,14.90
2019,05,05,10,17,14.90
2019,05,05,10,18,14.80
2019,05,05,10,19,14.80
2019,05,05,10,20,14.80
2019,05,05,10,21,14.80
2019,05,05,10,22,14.80
2019,05,05,10,23,14.80
2019,05,05,10,24,14.80
2019,05,05,10,25,14.80
2019,05,05,10,26,14.80
2019,05,05,10,27,14.80
2019,05,05,10,28,14.80
2019,05,05,10,29,14.80
2019,05,05,10,30,14.80
2019,05,05,10,31,14.80
2019,05,05,10,32,14.80
2019,05,05,10,33,14.90
2019,05,05,10,34,14.90
2019,05,05,10,35,14.90
2019,05,05,10,36,14.90
2019,05,05,10,37,14.80
2019,05,05,10,38,14.80
2019,05,05,10,39,14.80
2019,05,05,10,40,14.70
2019,05,05,10,41,14.70
2019,05,05,10,42,14.60
2019,05,05,10,43,14.60
2019,05,05,10,44,14.70
2019,05,05,10,45,14.70
2019,05,05,10,46,14.80
2019,05,05,10,47,14.80
2019,05,05,10,48,14.90
2019,05,05,10,49,15.00
2019,05,05,10,50,15.00
2019,05,05,10,51,15.10
2019,05,05,10,52,15.20
2019,05,05,10,53,15.20
2019,05,05,10,54,15.20
2019,05,05,10,55,15.10
2019,05,05,10,56,15.00
2019,05,05,10,57,15.00
2019,05,05,10,58,14.90
2019,05,05,10,59,14.90
2019,05,05,11,00,14.90
2019,05,05,11,01,14.90
2019,05,05,11,02,14.90
2019,05,05,11,03,14.90
2019,05,05,11,04,15.00
2019,05,05,11,05,15.00
2019,05,05,11,06,15.10
2019,05,05,11,07,15.20
2019,05,05,11,08,15.20
2019,05,05,11,09,15.20
2019,05,05,11,10,15.30
2019,05,05,11,11,15.30
2019,05,05,11,12,15.40
2019,05,05,11,13,15.40
2019,05,05,11,14,15.50
2019,05,05,11,15,15.60
2019,05,05,11,16,15.60
2019,05,05,11,17,15.60
2019,05,05,11,18,15.50
2019,05,05,11,19,15.50
2019,05,05,11,20,15.40
2019,05,05,11,21,15.50
2019,05,05,11,22,15.50
2019,05,05,11,23,15.60
2019,05,05,11,24,15.60
2019,05,05,11,25,15.60
2019,05,05,11,26,15.60
2019,05,05,11,27,15.60
2019,05,05,11,28,15.60
2019,05,05,11,29,15.50
2019,05,05,11,30,15.50
2019,05,05,11,31,15.50
2019,05,05,11,32,15.50
2019,05,05,11,33,15.60
2019,05,05,11,34,15.50
2019,05,05,11,35,15.50
2019,05,05,11,36,15.50
2019,05,05,11,37,15.60
2019,05,05,11,38,15.60
2019,05,05,11,39,15.70
2019,05,05,11,40,15.70
2019,05,05,11,41,15.70
2019,05,05,11,42,15.70
2019,05,05,11,43,15.80
2019,05,05,11,44,15.90
2019,05,05,11,45,15.80
2019,05,05,11,46,15.80
2019,05,05,11,47,15.70
2019,05,05,11,48,15.70
2019,05,05,11,49,15.70
2019,05,05,11,50,15.80
2019,05,05,11,51,15.80
2019,05,05,11,52,15.80
2019,05,05,11,53,15.80
2019,05,05,11,54,15.80
2019,05,05,11,55,15.80
2019,05,05,11,56,15.80
2019,05,05,11,57,15.80
2019,05,05,11,58,15.80
2019,05,05,11,59,15.80
2019,05,05,12,00,15.80
2019,05,05,12,01,15.70
2019,05,05,12,02,15.70
2019,05,05,12,03,15.60
2019,05,05,12,04,15.60
2019,05,05,12,05,15.60
2019,05,05,12,06,15.60
2019,05,05,12,07,15.70
2019,05,05,12,08,15.80
2019,05,05,12,09,15.90
2019,05,05,12,10,16.00
2019,05,05,12,11,16.00
2019,05,05,12,12,16.00
2019,05,05,12,13,16.00
2019,05,05,12,14,16.00
2019,05,05,12,15,16.00
2019,05,05,12,16,16.00
2019,05,05,12,17,16.10
2019,05,05,12,18,16.10
2019,05,05,12,19,16.10
2019,05,05,12,20,16.10
2019,05,05,12,21,16.20
2019,05,05,12,22,16.30
2019,05,05,12,23,16.40
2019,05,05,12,24,16.50
2019,05,05,12,25,16.60
2019,05,05,12,26,16.60
2019,05,05,12,27,16.60
2019,05,05,12,28,16.70
2019,05,05,12,29,16.70
2019,05,05,12,30,16.80
2019,05,05,12,31,16.80
2019,05,05,12,32,16.80
2019,05,05,12,33,16.90
2019,05,05,12,34,16.90
2019,05,05,12,35,17.00
2019,05,05,12,36,16.90
2019,05,05,12,37,16.90
2019,05,05,12,38,16.90
2019,05,05,12,39,16.90
2019,05,05,12,40,17.00
2019,05,05,12,41,17.10
2019,05,05,12,42,17.10
2019,05,05,12,43,17.10
2019,05,05,12,44,17.20
2019,05,05,12,45,17.10
2019,05,05,12,46,17.10
2019,05,05,12,47,17.10
2019,05,05,12,48,17.10
2019,05,05,12,49,17.00
2019,05,05,12,50,16.90
2019,05,05,12,51,16.80
2019,05,05,12,52,16.80
2019,05,05,12,53,16.90
2019,05,05,12,54,16.90
2019,05,05,12,55,16.90
2019,05,05,12,56,17.10
2019,05,05,12,57,17.20
2019,05,05,12,58,17.30
2019,05,05,12,59,17.30
2019,05,05,13,00,17.30
2019,05,05,13,01,17.30
2019,05,05,13,02,17.30
2019,05,05,13,03,17.30
2019,05,05,13,04,17.40
2019,05,05,13,05,17.40
2019,05,05,13,06,17.40
2019,05,05,13,07,17.40
2019,05,05,13,08,17.30
2019,05,05,13,09,17.30
2019,05,05,13,10,17.30
2019,05,05,13,11,17.30
2019,05,05,13,12,17.30
2019,05,05,13,13,17.30
2019,05,05,13,14,17.30
2019,05,05,13,15,17.30
2019,05,05,13,16,17.30
2019,05,05,13,17,17.20
2019,05,05,13,18,17.20
2019,05,05,13,19,17.20
2019,05,05,13,20,17.20
2019,05,05,13,21,17.30
2019,05,05,13,22,17.30
2019,05,05,13,23,17.40
2019,05,05,13,24,17.40
2019,05,05,13,25,17.50
2019,05,05,13,26,17.60
2019,05,05,13,27,17.60
2019,05,05,13,28,17.60
2019,05,05,13,29,17.60
2019,05,05,13,30,17.70
2019,05,05,13,31,17.70
2019,05,05,13,32,17.70
2019,05,05,13,33,17.70
2019,05,05,13,34,17.70
2019,05,05,13,35,17.70
2019,05,05,13,36,17.80
2019,05,05,13,37,17.80
2019,05,05,13,38,17.70
2019,05,05,13,39,17.70
2019,05,05,13,40,17.90
2019,05,05,13,41,18.00
2019,05,05,13,42,18.10
2019,05,05,13,43,18.10
2019,05,05,13,44,18.10
2019,05,05,13,45,18.20
2019,05,05,13,46,18.20
2019,05,05,13,47,18.20
2019,05,05,13,48,18.30
2019,05,05,13,49,18.20
2019,05,05,13,50,18.10
2019,05,05,13,51,18.00
2019,05,05,13,52,17.90
2019,05,05,13,53,18.00
2019,05,05,13,54,18.20
2019,05,05,13,55,18.20
2019,05,05,13,56,18.30
2019,05,05,13,57,18.30
2019,05,05,13,58,18.30
2019,05,05,13,59,18.30
2019,05,05,14,00,18.40
2019,05,05,14,01,18.50
2019,05,05,14,02,18.60
2019,05,05,14,03,18.70
2019,05,05,14,04,18.80
2019,05,05,14,05,18.80
2019,05,05,14,06,18.90
2019,05,05,14,07,19.00
2019,05,05,14,08,19.00
2019,05,05,14,09,19.00
2019,05,05,14,10,18.90
2019,05,05,14,11,18.70
2019,05,05,14,12,18.70
2019,05,05,14,13,18.70
2019,05,05,14,14,18.70
2019,05,05,14,15,18.70
2019,05,05,14,16,18.70
2019,05,05,14,17,18.70
2019,05,05,14,18,18.70
2019,05,05,14,19,18.70
2019,05,05,14,20,18.70
2019,05,05,14,21,18.70
2019,05,05,14,22,18.60
2019,05,05,14,23,18.70
2019,05,05,14,24,18.70
2019,05,05,14,25,18.70
2019,05,05,14,26,18.70
2019,05,05,14,27,18.70
2019,05,05,14,28,18.80
2019,05,05,14,29,18.90
2019,05,05,14,30,18.90
2019,05,05,14,31,18.90
2019,05,05,14,32,19.00
2019,05,05,14,33,19.00
2019,05,05,14,34,19.10
2019,05,05,14,35,19.30
2019,05,05,14,36,19.30
2019,05,05,14,37,19.30
2019,05,05,14,38,19.30
2019,05,05,14,39,19.40
2019,05,05,14,40,19.50
2019,05,05,14,41,19.50
2019,05,05,14,42,19.60
2019,05,05,14,43,19.60
2019,05,05,14,44,19.60
2019,05,05,14,45,19.60
2019,05,05,14,46,19.50
2019,05,05,14,47,19.30
2019,05,05,14,48,19.20
2019,05,05,14,49,19.20
2019,05,05,14,50,19.10
2019,05,05,14,51,19.10
2019,05,05,14,52,19.10
2019,05,05,14,53,19.10
2019,05,05,14,54,19.20
2019,05,05,14,55,19.20
2019,05,05,14,56,19.30
2019,05,05,14,57,19.30
2019,05,05,14,58,19.40
2019,05,05,14,59,19.40
2019,05,05,15,00,19.50
2019,05,05,15,01,19.50
2019,05,05,15,02,19.60
2019,05,05,15,03,19.60
2019,05,05,15,04,19.60
2019,05,05,15,05,19.60
2019,05,05,15,06,19.60
2019,05,05,15,07,19.70
2019,05,05,15,08,19.70
2019,05,05,15,09,19.70
2019,05,05,15,10,19.70
2019,05,05,15,11,19.70
2019,05,05,15,12,19.70
2019,05,05,15,13,19.70
2019,05,05,15,14,19.70
2019,05,05,15,15,19.60
2019,05,05,15,16,19.60
2019,05,05,15,17,19.50
2019,05,05,15,18,19.50
2019,05,05,15,19,19.50
2019,05,05,15,20,19.40
2019,05,05,15,21,19.30
2019,05,05,15,22,19.30
2019,05,05,15,23,19.20
2019,05,05,15,24,19.10
2019,05,05,15,25,18.90
2019,05,05,15,26,18.70
2019,05,05,15,27,18.50
2019,05,05,15,28,18.40
2019,05,05,15,29,18.30
2019,05,05,15,30,18.20
2019,05,05,15,31,18.00
2019,05,05,15,32,17.90
2019,05,05,15,33,17.90
2019,05,05,15,34,17.90
2019,05,05,15,35,17.80
2019,05,05,15,36,17.80
2019,05,05,15,37,17.80
2019,05,05,15,38,17.80
2019,05,05,15,39,17.90
2019,05,05,15,40,18.00
2019,05,05,15,41,18.00
2019,05,05,15,42,18.00
2019,05,05,15,43,18.10
2019,05,05,15,44,18.20
2019,05,05,15,45,18.30
2019,05,05,15,46,18.30
2019,05,05,15,47,18.20
2019,05,05,15,48,18.20
2019,05,05,15,49,18.20
2019,05,05,15,50,18.20
2019,05,05,15,51,18.10
2019,05,05,15,52,18.10
2019,05,05,15,53,18.00
2019,05,05,15,54,17.90
2019,05,05,15,55,17.90
2019,05,05,15,56,18.00
2019,05,05,15,57,18.10
2019,05,05,15,58,18.10
2019,05,05,15,59,18.10
2019,05,05,16,00,18.10
2019,05,05,16,01,18.10
2019,05,05,16,02,18.20
2019,05,05,16,03,18.20
2019,05,05,16,04,18.10
2019,05,05,16,05,18.10
2019,05,05,16,06,18.00
2019,05,05,16,07,17.90
2019,05,05,16,08,17.90
2019,05,05,16,09,17.80
2019,05,05,16,10,17.80
2019,05,05,16,11,17.70
2019,05,05,16,12,17.70
2019,05,05,16,13,17.70
2019,05,05,16,14,17.80
2019,05,05,16,15,17.80
2019,05,05,16,16,17.70
2019,05,05,16,17,17.70
2019,05,05,16,18,17.60
2019,05,05,16,19,17.60
2019,05,05,16,20,17.50
2019,05,05,16,21,17.40
2019,05,05,16,22,17.30
2019,05,05,16,23,17.30
2019,05,05,16,24,17.30
2019,05,05,16,25,17.30
2019,05,05,16,26,17.30
2019,05,05,16,27,17.40
2019,05,05,16,28,17.40
2019,05,05,16,29,17.30
2019,05,05,16,30,17.20
2019,05,05,16,31,17.10
2019,05,05,16,32,17.00
2019,05,05,16,33,16.90
2019,05,05,16,34,17.00
2019,05,05,16,35,17.00
2019,05,05,16,36,17.10
2019,05,05,16,37,17.10
2019,05,05,16,38,17.20
2019,05,05,16,39,17.30
2019,05,05,16,40,17.40
2019,05,05,16,41,17.30
2019,05,05,16,42,17.20
2019,05,05,16,43,17.10
2019,05,05,16,44,17.00
2019,05,05,16,45,17.00
2019,05,05,16,46,17.00
2019,05,05,16,47,17.10
2019,05,05,16,48,17.10
2019,05,05,16,49,17.00
2019,05,05,16,50,17.00
2019,05,05,16,51,17.00
2019,05,05,16,52,17.10
2019,05,05,16,53,17.20
2019,05,05,16,54,17.40
2019,05,05,16,55,17.60
2019,05,05,16,56,17.60
2019,05,05,16,57,17.60
2019,05,05,16,58,17.60
2019,05,05,16,59,17.50
2019,05,05,17,00,17.50
2019,05,05,17,01,17.50
2019,05,05,17,02,17.60
2019,05,05,17,03,17.50
2019,05,05,17,04,17.40
2019,05,05,17,05,17.40
2019,05,05,17,06,17.30
2019,05,05,17,07,17.30
2019,05,05,17,08,17.30
2019,05,05,17,09,17.30
2019,05,05,17,10,17.40
2019,05,05,17,11,17.50
2019,05,05,17,12,17.60
2019,05,05,17,13,17.80
2019,05,05,17,14,17.90
2019,05,05,17,15,18.00
2019,05,05,17,16,18.00
2019,05,05,17,17,17.90
2019,05,05,17,18,17.70
2019,05,05,17,19,17.70
2019,05,05,17,20,17.70
2019,05,05,17,21,17.80
2019,05,05,17,22,17.80
2019,05,05,17,23,17.70
2019,05,05,17,24,17.70
2019,05,05,17,25,17.70
2019,05,05,17,26,17.80
2019,05,05,17,27,17.80
2019,05,05,17,28,17.80
2019,05,05,17,29,17.90
2019,05,05,17,30,17.90
2019,05,05,17,31,17.90
2019,05,05,17,32,18.00
2019,05,05,17,33,18.10
2019,05,05,17,34,18.10
2019,05,05,17,35,18.00